(°C)
-5°
-5°
-5°
-5°
-6°
-6°
-7°
(°C)
-10°
-11°
-11°
-11°
-12°
-12°
-13°
SSV
SSV
SSV
SSV
SSV
SSV
SSV
(km/h)
11-21
11-22
12-22
12-22
13-21
12-21
12-21
(mm)
0
0
0
0
0
0
0
(%)
0
0
0
0
0
0
0

Výška Slnka nad obzorom

/ -45.5°
sun-icon
UV 2
07:17
17:09
Zmenšujúci sa polmesiac (220°)
20:55
09:41

Správy METAR pre lokalitu Wilmington Manor (KILG)

Čas Podmienky Teplota/
Rosný bod
Vietor Viditeľnosť Počasie Oblaky Tlak Zmeniť Nespracované
VFR -4.4°C / °C 40º 12kt >10km - Clear 1033 - KILG 220151Z AUTO 04012KT 10SM CLR M04/M18 A3052 RMK AO2 SLP337 T10441178 $
VFR -4.4°C / °C 30º 11kt >10km - Clear 1033 - KILG 220051Z 03011KT 10SM CLR M04/M16 A3053 RMK AO2 SLP338 T10441161 $
VFR -4.4°C / °C 10º 7kt >10km - Clear 1034 - KILG 212351Z 01007KT 10SM CLR M04/M15 A3054 RMK AO2 SLP341 T10441150 11028 21044 52010 $
VFR -4.4°C / °C 20º 8kt >10km - Clear 1033 - KILG 212251Z 02008KT 10SM CLR M04/M16 A3052 RMK AO2 SLP337 T10441156 $
VFR -3.9°C / °C 20º 8kt >10km - Clear 1033 - KILG 212151Z 02008KT 10SM CLR M04/M16 A3052 RMK AO2 SLP335 T10391156 $
VFR -3.9°C / °C 20º 10kt >10km - Clear 1033 - KILG 212051Z 02010KT 10SM CLR M04/M16 A3051 RMK AO2 SLP331 T10391156 55006
VFR -2.8°C / °C 10º 6kt >10km - Clear 1032 - KILG 211951Z 01006KT 10SM CLR M03/M16 A3050 RMK AO2 SLP328 T10281156 $
VFR -3.3°C / °C 50º 8kt >10km - Clear 1032 - KILG 211851Z 05008KT 10SM CLR M03/M16 A3050 RMK AO2 SLP329 T10331161 $
VFR -4.4°C / °C 40º 9kt >10km - Clear 1033 - KILG 211751Z 04009KT 10SM CLR M04/M16 A3052 RMK AO2 SLP337 T10441161 11039 21089 58014 $
VFR -5°C / °C 10º 10kt Gust 17kt >10km - Clear 1034 - KILG 211651Z 01010G17KT 10SM CLR M05/M16 A3054 RMK AO2 SLP344 T10501156 $
VFR -5.6°C / °C 20º 8kt >10km - Clear 1035 - KILG 211551Z 02008KT 10SM CLR M06/M16 A3057 RMK AO2 SLP352 T10561156 $
VFR -7.2°C / °C 350º 13kt >10km - Clear 1035 - KILG 211451Z 35013KT 10SM CLR M07/M16 A3057 RMK AO2 SLP351 T10721156 51015 $
VFR -7.8°C / °C 360º 10kt >10km - Clear 1034 - KILG 211351Z 36010KT 10SM CLR M08/M16 A3055 RMK AO2 SLP346 T10781156 $
VFR -8.3°C / °C 360º 7kt >10km - Clear 1034 - KILG 211251Z 36007KT 10SM CLR M08/M16 A3054 RMK AO2 SLP343 T10831156 $
VFR -8.9°C / °C 360º 10kt >10km - Clear 1033 - KILG 211151Z 36010KT 10SM CLR M09/M16 A3052 RMK AO2 SLP336 70009 T10891156 11061 21089 53025 $
VFR -8.9°C / °C 360º 8kt >10km - Clear 1032 - KILG 211051Z AUTO 36008KT 10SM CLR M09/M16 A3049 RMK AO2 SLP326 T10891161 $
VFR -8.3°C / °C 360º 13kt >10km - Clear 1031 - KILG 210951Z AUTO 36013KT 10SM CLR M08/M16 A3047 RMK AO2 SLP317 T10831161 $
VFR -7.8°C / °C 10º 16kt Gust 22kt >10km - Clear 1031 - KILG 210851Z AUTO 01016G22KT 10SM CLR M08/M16 A3045 RMK AO2 SLP311 T10781161 51011 $
VFR -7.2°C / °C 360º 19kt Gust 23kt >10km - Clear 1030 - KILG 210751Z AUTO 36019G23KT 10SM CLR M07/M16 A3044 RMK AO2 SLP308 T10721161 $
VFR -7.2°C / °C 360º 12kt >10km - Clear 1030 - KILG 210651Z AUTO 36012KT 10SM CLR M07/M16 A3043 RMK AO2 SLP304 T10721156 $
VFR -6.1°C / °C 350º 14kt Gust 19kt >10km - Clear 1030 - KILG 210551Z AUTO 35014G19KT 10SM CLR M06/M16 A3041 RMK AO2 SLP300 T10611156 11006 21061 51006 $
VFR -5.6°C / °C 360º 15kt Gust 21kt >10km - Clear 1029 - KILG 210451Z AUTO 36015G21KT 10SM CLR M06/M16 A3041 RMK AO2 SLP299 T10561156 400781056 $
VFR -5°C / °C 360º 13kt Gust 19kt >10km - Clear 1030 - KILG 210351Z AUTO 36013G19KT 10SM CLR M05/M15 A3042 RMK AO2 SLP301 T10501150 $
VFR -3.9°C / °C 360º 14kt Gust 23kt >10km - Clear 1029 - KILG 210251Z AUTO 36014G23KT 10SM CLR M04/M14 A3040 RMK AO2 SLP294 T10391144 53030 $

VFR

-4.4°C / °C

[Viac]
Vietor 40º 12kt
Viditeľnosť >10km
Počasie -
Oblaky Clear
Tlak 1033
Zmeniť -
Nespracované KILG 220151Z AUTO 04012KT 10SM CLR M04/M18 A3052 RMK AO2 SLP337 T10441178 $

VFR

-4.4°C / °C

[Viac]
Vietor 30º 11kt
Viditeľnosť >10km
Počasie -
Oblaky Clear
Tlak 1033
Zmeniť -
Nespracované KILG 220051Z 03011KT 10SM CLR M04/M16 A3053 RMK AO2 SLP338 T10441161 $

VFR

-4.4°C / °C

[Viac]
Vietor 10º 7kt
Viditeľnosť >10km
Počasie -
Oblaky Clear
Tlak 1034
Zmeniť -
Nespracované KILG 212351Z 01007KT 10SM CLR M04/M15 A3054 RMK AO2 SLP341 T10441150 11028 21044 52010 $

VFR

-4.4°C / °C

[Viac]
Vietor 20º 8kt
Viditeľnosť >10km
Počasie -
Oblaky Clear
Tlak 1033
Zmeniť -
Nespracované KILG 212251Z 02008KT 10SM CLR M04/M16 A3052 RMK AO2 SLP337 T10441156 $

VFR

-3.9°C / °C

[Viac]
Vietor 20º 8kt
Viditeľnosť >10km
Počasie -
Oblaky Clear
Tlak 1033
Zmeniť -
Nespracované KILG 212151Z 02008KT 10SM CLR M04/M16 A3052 RMK AO2 SLP335 T10391156 $

VFR

-3.9°C / °C

[Viac]
Vietor 20º 10kt
Viditeľnosť >10km
Počasie -
Oblaky Clear
Tlak 1033
Zmeniť -
Nespracované KILG 212051Z 02010KT 10SM CLR M04/M16 A3051 RMK AO2 SLP331 T10391156 55006

VFR

-2.8°C / °C

[Viac]
Vietor 10º 6kt
Viditeľnosť >10km
Počasie -
Oblaky Clear
Tlak 1032
Zmeniť -
Nespracované KILG 211951Z 01006KT 10SM CLR M03/M16 A3050 RMK AO2 SLP328 T10281156 $

VFR

-3.3°C / °C

[Viac]
Vietor 50º 8kt
Viditeľnosť >10km
Počasie -
Oblaky Clear
Tlak 1032
Zmeniť -
Nespracované KILG 211851Z 05008KT 10SM CLR M03/M16 A3050 RMK AO2 SLP329 T10331161 $

VFR

-4.4°C / °C

[Viac]
Vietor 40º 9kt
Viditeľnosť >10km
Počasie -
Oblaky Clear
Tlak 1033
Zmeniť -
Nespracované KILG 211751Z 04009KT 10SM CLR M04/M16 A3052 RMK AO2 SLP337 T10441161 11039 21089 58014 $

VFR

-5°C / °C

[Viac]
Vietor 10º 10kt Gust 17kt
Viditeľnosť >10km
Počasie -
Oblaky Clear
Tlak 1034
Zmeniť -
Nespracované KILG 211651Z 01010G17KT 10SM CLR M05/M16 A3054 RMK AO2 SLP344 T10501156 $

VFR

-5.6°C / °C

[Viac]
Vietor 20º 8kt
Viditeľnosť >10km
Počasie -
Oblaky Clear
Tlak 1035
Zmeniť -
Nespracované KILG 211551Z 02008KT 10SM CLR M06/M16 A3057 RMK AO2 SLP352 T10561156 $

VFR

-7.2°C / °C

[Viac]
Vietor 350º 13kt
Viditeľnosť >10km
Počasie -
Oblaky Clear
Tlak 1035
Zmeniť -
Nespracované KILG 211451Z 35013KT 10SM CLR M07/M16 A3057 RMK AO2 SLP351 T10721156 51015 $

VFR

-7.8°C / °C

[Viac]
Vietor 360º 10kt
Viditeľnosť >10km
Počasie -
Oblaky Clear
Tlak 1034
Zmeniť -
Nespracované KILG 211351Z 36010KT 10SM CLR M08/M16 A3055 RMK AO2 SLP346 T10781156 $

VFR

-8.3°C / °C

[Viac]
Vietor 360º 7kt
Viditeľnosť >10km
Počasie -
Oblaky Clear
Tlak 1034
Zmeniť -
Nespracované KILG 211251Z 36007KT 10SM CLR M08/M16 A3054 RMK AO2 SLP343 T10831156 $

VFR

-8.9°C / °C

[Viac]
Vietor 360º 10kt
Viditeľnosť >10km
Počasie -
Oblaky Clear
Tlak 1033
Zmeniť -
Nespracované KILG 211151Z 36010KT 10SM CLR M09/M16 A3052 RMK AO2 SLP336 70009 T10891156 11061 21089 53025 $

VFR

-8.9°C / °C

[Viac]
Vietor 360º 8kt
Viditeľnosť >10km
Počasie -
Oblaky Clear
Tlak 1032
Zmeniť -
Nespracované KILG 211051Z AUTO 36008KT 10SM CLR M09/M16 A3049 RMK AO2 SLP326 T10891161 $

VFR

-8.3°C / °C

[Viac]
Vietor 360º 13kt
Viditeľnosť >10km
Počasie -
Oblaky Clear
Tlak 1031
Zmeniť -
Nespracované KILG 210951Z AUTO 36013KT 10SM CLR M08/M16 A3047 RMK AO2 SLP317 T10831161 $

VFR

-7.8°C / °C

[Viac]
Vietor 10º 16kt Gust 22kt
Viditeľnosť >10km
Počasie -
Oblaky Clear
Tlak 1031
Zmeniť -
Nespracované KILG 210851Z AUTO 01016G22KT 10SM CLR M08/M16 A3045 RMK AO2 SLP311 T10781161 51011 $

VFR

-7.2°C / °C

[Viac]
Vietor 360º 19kt Gust 23kt
Viditeľnosť >10km
Počasie -
Oblaky Clear
Tlak 1030
Zmeniť -
Nespracované KILG 210751Z AUTO 36019G23KT 10SM CLR M07/M16 A3044 RMK AO2 SLP308 T10721161 $

VFR

-7.2°C / °C

[Viac]
Vietor 360º 12kt
Viditeľnosť >10km
Počasie -
Oblaky Clear
Tlak 1030
Zmeniť -
Nespracované KILG 210651Z AUTO 36012KT 10SM CLR M07/M16 A3043 RMK AO2 SLP304 T10721156 $

VFR

-6.1°C / °C

[Viac]
Vietor 350º 14kt Gust 19kt
Viditeľnosť >10km
Počasie -
Oblaky Clear
Tlak 1030
Zmeniť -
Nespracované KILG 210551Z AUTO 35014G19KT 10SM CLR M06/M16 A3041 RMK AO2 SLP300 T10611156 11006 21061 51006 $

VFR

-5.6°C / °C

[Viac]
Vietor 360º 15kt Gust 21kt
Viditeľnosť >10km
Počasie -
Oblaky Clear
Tlak 1029
Zmeniť -
Nespracované KILG 210451Z AUTO 36015G21KT 10SM CLR M06/M16 A3041 RMK AO2 SLP299 T10561156 400781056 $

VFR

-5°C / °C

[Viac]
Vietor 360º 13kt Gust 19kt
Viditeľnosť >10km
Počasie -
Oblaky Clear
Tlak 1030
Zmeniť -
Nespracované KILG 210351Z AUTO 36013G19KT 10SM CLR M05/M15 A3042 RMK AO2 SLP301 T10501150 $

VFR

-3.9°C / °C

[Viac]
Vietor 360º 14kt Gust 23kt
Viditeľnosť >10km
Počasie -
Oblaky Clear
Tlak 1029
Zmeniť -
Nespracované KILG 210251Z AUTO 36014G23KT 10SM CLR M04/M14 A3040 RMK AO2 SLP294 T10391144 53030 $

Správy TAF pre lokalitu Wilmington Manor (KILG)

From till


From till Wind 20º 10kt. Visibility 10km or more. Broken Clouds 20000ft.
From till Wind 290º 6kt. Visibility 10km or more. Few Clouds 20000ft.

Nespracované: KILG 212320Z 2200/2224 02010KT P6SM BKN200 FM221900 29006KT P6SM FEW200

Radar a krátkodobá predpoveď zrážok pre Wilmington Manor

Mrholenie
Slabý
Mierne
Ťažké
Veľmi ťažké
Krúpy

Značka polohy je umiestnená na Wilmington Manor. Táto animácia ukazuje zrážky pozorované radarom za poslednú hodinu a tiež 1h predpoveď. Mrholenie alebo slabé sneženie môže byť pre radar neviditeľné. Intenzita zrážok je farebne označená od svetlomodrej po oranžovú.

Aktuálne satelitné snímky pre lokalitu Wilmington Manor, Spojené štáty americké

Značka polohy je umiestnená naWilmington Manor. [Viac]

Satelitné snímky zhotovované v reálnom čase využívajú viditeľné svetlo počas dňa a infračervené žiarenie počas noci. Vzhľadom na to, že infračervené žiarenie zisťuje teplotné rozdiely, snímka v noci nie je tmavá. Nízke oblaky a hmlu je, žiaľ, ťažké odlíšiť od prízemných teplôt, preto môžu byť počas noci takmer neviditeľné. Meteosat satelitné snímky pre Európu sú aktualizované v reálnom čase každých 5 minút. Snímky z GOES-16/GOES-17 (Severná a Južná Amerika) a Himawari (Ázia) sú aktualizované každých 10 minút.